Terug naar catalogus

JAY-D2

ActiefAmateurradioSSO
NORAD 62665·PAYLOAD·🇨🇦 Canada

Gelanceerd Jan 14, 2025 vanaf Vandenberg Space Force Base

Loading…

Volgende Passages (komende 24 uur)

TLE

VersSource: Space-Track

Epoch: Sep 14, 2026, 13:27 UTC

1 62665U 25009BJ  26257.56058688  .00002855  00000-0  12488-3 0  9995
2 62665  97.3827 334.5362 0005006  36.2121 323.9454 15.22859379 92333

Volg JAY-D2 in realtime met AllMySat

Download on the App Store